Regional Weather Roundup
Issued by NWS

Home | Current Version | Previous Version | Graphics & Text | Print | Product List | Glossary On
Versions: 1 2 3 4 5 6 7 8 9 10 11 12 13 14 15 16 17 18 19 20 21 22 23 24 25 26 27 28 29 30 31 32 33 34 35 36 37 38 39 40 41 42 43 44 45 46 47 48 49 50
160
ASUS43 KLSX 201010
RWRMO

WEATHER SUMMARY FOR MISSOURI
NATIONAL WEATHER SERVICE SPRINGFIELD MO
400 AM CST FRI JAN 20 2017

NOTE: "FAIR" INDICATES FEW OR NO CLOUDS BELOW 12,000 FEET WITH NO
       SIGNIFICANT WEATHER AND/OR OBSTRUCTIONS TO VISIBILITY.
       CURRENT SKY AND/OR WEATHER CONDITIONS ARE NOT AVAILABLE FOR
       CHILLICOTHE AND FARMINGTON.

MOZ001>031-035>038-043-044-053-054-201100-
...NORTHERN AND WESTERN MISSOURI...

CITY           SKY/WX    TMP DP  RH WIND       PRES   REMARKS
KANSAS CTY INT FOG       45  43  93 E6        29.55F VSB 1/4
KANSAS C DTWN  FOG       46  46 100 E5        29.56F VSB 1
LEE`S SUMMIT   FOG       46  45  96 SE6       29.57F VSB 1/2
ST JOSEPH      CLOUDY    43  43 100 NE5       29.57F FOG
CHILLICOTHE      N/A     42  42 100 CALM      29.60F
KIRKSVILLE     FOG       40  40 100 CALM      29.60F VSB 1/4

$$
MOZ066>068-077>081-088>096-101>105-201100-
...SOUTHWEST MISSOURI...

CITY           SKY/WX    TMP DP  RH WIND       PRES   REMARKS
SPRINGFIELD    CLOUDY    48  47  96 S6        29.60S
JOPLIN         CLOUDY    49  49 100 SE6       29.58F FOG
BRANSON        FOG       41  41 100 CALM      29.62F VSB<1/4

$$
MOZ032>034-039>042-045>050-055>058-069>072-201100-
...CENTRAL MISSOURI...

CITY           SKY/WX    TMP DP  RH WIND       PRES   REMARKS
COLUMBIA       FOG       45  45 100 SE6       29.58F VSB 1/2
JEFFERSON CITY CLOUDY    47  46  97 CALM      29.59F
ROLLA          CLOUDY    48  48 100 S8        29.57F
SEDALIA        FOG       46  46 100 CALM      29.58F VSB 1/4
WHITEMAN AFB   FOG       45  45 100 E6        29.55F VSB 1/4
WARRENSBURG    FOG       45  45 100 CALM      29.57F VSB 1/4
OSAGE BEACH    CLOUDY    49  48  97 SW5       29.60S

$$
MOZ051-052-059>065-201100-
...EAST CENTRAL MISSOURI...

CITY           SKY/WX    TMP DP  RH WIND       PRES   REMARKS
ST LOUIS INTL  FOG       47  46  97 CALM      29.61F VSB 1/4
SPIRIT OF STL  FOG       44  44 100 CALM      29.61S VSB 3/4
ST CHARLES     FOG       44  44 100 E3        29.61F VSB 1/4

$$
MOZ072>076-082>087-097>100-106>115-201100-
...SOUTH CENTRAL AND SOUTHEAST MISSOURI...

CITY           SKY/WX    TMP DP  RH WIND       PRES   REMARKS
CAPE GIRARDEAU CLOUDY    51  49  92 SW12      29.66S
FARMINGTON     CLOUDY    48  48 100 SW5       29.63F
POPLAR BLUFF   CLOUDY    50  50 100 SW7       29.67S
WEST PLAINS    CLOUDY    49  48  97 S3        29.64F

$$




USA.gov is the U.S. government's official web portal to all federal, state and local government web resources and services.